Home   Weather   Nicosia   Past weeks

Flag for Cyprus Past Weather in Nicosia, Cyprus — Yesterday and Last 2 Weeks

Now
45 °F

Passing clouds.


Feels Like: 41 °F
Forecast: 41 / 62 °F
Wind: 7 mph from West

Location: Ercan

Current Time: Jan 18, 2017 at 6:29:09 am

Latest Report: Jan 18, 2017 at 5:50 am


Visibility: N/A

Pressure: 30.04 "Hg

Humidity: 81%

Dew Point: 39 °F

Location of NicosiaLocation

Past Weather in Nicosia — Graph

°F

Nicosia Temperature Yesterday

Maximum temperature yesterday: 61 °F (at 12:50 pm)
Minimum temperature yesterday: 41 °F (at 3:50 am)
Average temperature yesterday: 50 °F

High & Low Weather Summary for the Past Weeks

 TemperatureHumidityPressure
High64 °F (Jan 5, 12:50 pm)100% (Jan 7, 3:50 am)30.30 "Hg (Jan 7, 3:50 am)
Low34 °F (Jan 10, 1:20 am)38% (Jan 9, 12:20 pm)29.65 "Hg (Jan 8, 12:30 pm)
Average49 °F77%30.04 "Hg
* Reported Jan 3 5:20 am — Jan 18 5:20 am, Nicosia, Weather by CustomWeather, © 2017

Note: Actual official high and low records may vary slightly from our data, if they occured in-between our weather recording intervals... More about our weather records

Advertising

Nicosia Weather History for the Previous 24 Hours

Scroll right to see more
 ConditionsComfort  
Time TempWeatherWind HumidityBarometerVisibility
5:20 am
Wed, Jan 18
45 °FPassing clouds.9 mph87%30.04 "HgN/A
4:50 am46 °FPassing clouds.5 mph82%30.04 "HgN/A
4:20 am46 °FPassing clouds.5 mph82%30.04 "HgN/A
3:50 am48 °FPassing clouds.5 mph82%30.04 "HgN/A
3:20 am48 °FPassing clouds.8 mph76%30.04 "HgN/A
2:50 am45 °FPassing clouds.5 mph87%30.04 "HgN/A
2:20 am48 °FPassing clouds.No wind76%30.04 "HgN/A
1:50 am46 °FPassing clouds.5 mph82%30.01 "HgN/A
1:20 am48 °FPassing clouds.6 mph76%30.01 "HgN/A
12:50 am48 °FPassing clouds.No wind76%30.04 "HgN/A
12:20 am48 °FPassing clouds.No wind82%30.04 "HgN/A
11:50 pm
Tue, Jan 17
48 °FPassing clouds.No wind82%30.07 "HgN/A
11:20 pm50 °FPassing clouds.3 mph76%30.07 "HgN/A
10:50 pm48 °FPassing clouds.No wind76%30.07 "HgN/A
10:20 pm50 °FPassing clouds.No wind76%30.07 "HgN/A
9:50 pm48 °FPassing clouds.5 mph76%30.07 "HgN/A
9:20 pm48 °FPassing clouds.7 mph82%30.04 "HgN/A
8:50 pm48 °FPassing clouds.5 mph76%30.07 "HgN/A
8:20 pm50 °FPassing clouds.7 mph76%30.07 "HgN/A
7:50 pm52 °FPassing clouds.6 mph77%30.07 "HgN/A
7:20 pm50 °FPassing clouds.6 mph82%30.07 "HgN/A
6:50 pm50 °FPassing clouds.3 mph82%30.07 "HgN/A
6:20 pm52 °FPassing clouds.5 mph77%30.07 "HgN/A
5:50 pm52 °FPassing clouds.3 mph77%30.07 "HgN/A
5:20 pm54 °FPassing clouds.8 mph72%30.04 "HgN/A
4:50 pm55 °FPartly sunny.12 mph67%30.07 "HgN/A
4:20 pm55 °FPartly sunny.15 mph67%30.07 "HgN/A
3:50 pm57 °FPartly sunny.17 mph59%30.07 "HgN/A
3:20 pm57 °FPartly sunny.18 mph59%30.07 "HgN/A
2:50 pm59 °FPartly sunny.20 mph55%30.07 "HgN/A
2:20 pm59 °FPartly sunny.18 mph59%30.04 "HgN/A
1:50 pm59 °FPartly sunny.16 mph55%30.07 "HgN/A
1:20 pm59 °FPartly sunny.15 mph55%30.07 "HgN/A
12:50 pm61 °FPartly sunny.14 mph52%30.07 "HgN/A
12:20 pm59 °FScattered clouds.14 mph59%30.09 "HgN/A
11:50 am59 °FScattered clouds.16 mph59%30.09 "HgN/A
11:20 am59 °FScattered clouds.15 mph63%30.12 "HgN/A
10:50 am57 °FScattered clouds.16 mph67%30.12 "HgN/A
10:20 am57 °FScattered clouds.16 mph67%30.12 "HgN/A
9:50 am55 °FScattered clouds.12 mph72%30.12 "HgN/A
9:20 am54 °FPartly sunny.12 mph77%30.12 "HgN/A
8:50 am50 °FPartly sunny.6 mph82%30.12 "HgN/A
8:20 am48 °FPartly sunny.5 mph87%30.12 "HgN/A
7:50 am45 °FScattered clouds.No wind93%30.12 "HgN/A
7:20 am43 °FScattered clouds.No wind87%30.12 "Hg5 mi
6:50 am43 °FPassing clouds.No wind87%30.12 "Hg5 mi
6:20 am43 °FPassing clouds.No wind87%30.12 "Hg4 mi
Weather by CustomWeather, © 2017

See weather overviewHow to use our weather pages